Location: ??????????
(54.8537°N, 38.8755°E)
Time: 16:02:11
(UTC+00:00)

Vanguard 3 - Pass Details

Date: 21 September 2024
Orbit: 507 x 3223 km, 33.3° (Epoch: 11 October)

Event Time Altitude Azimuth Distance (km) Brightness Sun altitude
Exits shadow 00:24:06 - 182° (S) 6,042 11.2 -22.8°
Rises 00:24:11 0° 182° (S) 6,033 11.2 -22.8°
Reaches altitude 10° 00:30:49 10° 161° (SSE) 5,521 11.2 -22.0°
Maximum altitude 00:38:36 15° 134° (SE) 5,511 11.5 -21.1°
Drops below altitude 10° 00:47:05 10° 107° (ESE) 6,139 12.1 -20.1°
Sets 00:55:14 0° 89° (E) 7,141 13.0 -19.1°
